Simultaneous Nadir Overpasses (SNOs) Predictions

Prediction of SNOs between FY3D and AQUA Satellite Orbit:

Table of predicted SNOs for the next 14.0 days since TLE Epoch: 4/23/2022
Index Date (FY3D) Time (FY3D) Lat,Lon (FY3D) SZA (FY3D ) Date (AQUA) Time (AQUA) Lat,Lon (AQUA) SZA (AQUA ) Distance(km) Time Diff (sec)
1 04/25/2022 09:15:18 -75.62,-148.90 117.49 04/25/2022 09:16:21 -75.61,-148.84 117.51 1.73 63
2 04/25/2022 10:05:30 73.98, 23.03 60.71 04/25/2022 10:05:16 73.99, 22.95 60.72 2.37 14
3 04/28/2022 00:42:19 75.33, 160.24 61.34 04/28/2022 00:43:00 75.33, 160.29 61.33 1.63 41
4 04/28/2022 01:32:35 -73.92, -28.58 120.21 04/28/2022 01:31:58 -73.92, -28.56 120.21 0.83 37
5 04/30/2022 16:09:18 -74.98, 109.52 119.87 04/30/2022 16:09:36 -74.98, 109.56 119.88 1.15 18
6 04/30/2022 16:59:28 73.23, -78.70 58.24 04/30/2022 16:58:29 73.24, -78.76 58.26 2.01 59
7 05/03/2022 06:45:53 -75.64,-111.56 119.92 05/03/2022 06:47:06 -75.65,-111.60 119.93 1.18 73
8 05/03/2022 07:36:16 74.61, 58.80 58.93 05/03/2022 07:36:11 74.61, 58.83 58.93 0.96 5
9 05/05/2022 22:12:56 75.53,-162.96 59.19 05/05/2022 22:13:45 75.53,-162.91 59.18 1.39 49



Historial Predications of SNOs between FY3D and AQUA
